Regional Weather Roundup
Issued by NWS Upton, NY

Current Version | Previous Version | Graphics & Text | Print | Product List | Glossary Off
Versions: 1 2 3 4 5 6 7 8 9 10 11 12 13 14 15 16 17 18 19 20 21 22 23 24 25 26 27 28 29 30 31 32 33 34 35 36 37 38 39 40 41 42 43 44 45 46 47 48 49 50

000
ASUS41 KOKX 251805
RWROKX

REGIONAL WEATHER ROUNDUP
NATIONAL WEATHER SERVICE NEW YORK NY
100 PM EST SUN JAN 25 2015

NOTE: "FAIR" INDICATES FEW OR NO CLOUDS BELOW 12,000 FEET WITH NO
SIGNIFICANT WEATHER AND/OR OBSTRUCTIONS TO VISIBILITY.

NYZ071-072-176-178-NJZ106-104-251900-
NEW YORK CITY METRO AREA


CITY           SKY/WX    TMP DP  RH WIND       PRES   REMARKS
CENTRAL PARK   PTSUNNY   42  14  32 VRB6G23   29.79R
LAGUARDIA APRT PTSUNNY   41  13  31 NW18G31   29.78R
KENNEDY INTL   PTSUNNY   45  16  31 W17G24    29.78R
NEWARK/LIBERTY PTSUNNY   42  18  37 W16       29.78R
BRNX BOT. GARD   N/A    N/A N/A N/A W25       29.80R
TETERBORO      MOSUNNY   41  14  33 W15G24    29.77R
$$

NYZ177-179-078>081-251900-
LONG ISLAND NEW YORK

CITY           SKY/WX    TMP DP  RH WIND       PRES   REMARKS
FARMINGDALE    MOSUNNY   42  16  34 NW17G24   29.76R
ISLIP          MOSUNNY   41  20  43 W18       29.73R
SHIRLEY        MOSUNNY   42  22  44 NW16G25   29.75R
WESTHAMPTON    MOSUNNY   43  19  38 W17G28    29.73R
MONTAUK POINT    N/A     42  25  50 W14G24    29.70R
$$

NYZ052-065-067-251900-
HUDSON VALLEY

CITY           SKY/WX    TMP DP  RH WIND       PRES   REMARKS
WHITE PLAINS   PTSUNNY   37  14  38 NW15G26   29.75R WCI  28
NEWBURGH       MOSUNNY   34  18  51 W17G29    29.77R WCI  23
MONTGOMERY     SUNNY     35  12  38 W10       29.77R WCI  27
POUGHKEEPSIE   MOSUNNY   36  14  40 W13       29.76R WCI  27
ALBANY         MOSUNNY   27   8  44 W18       29.79R WCI  14
$$

NJZ001-105-106-008-010-013-015-019>022-104-251900-
NEW JERSEY

CITY           SKY/WX    TMP DP  RH WIND       PRES   REMARKS
NEWARK/LIBERTY PTSUNNY   42  18  37 W16       29.78R
TETERBORO      MOSUNNY   41  14  33 W15G24    29.77R
CALDWELL       MOSUNNY   40  14  34 NW15G25   29.79R WCI  32
MORRISTOWN     MOSUNNY   41  12  30 NW14G24   29.79R
SOMERVILLE     MOSUNNY   43  22  43 W9G21     29.77R
SUSSEX         SUNNY     37  12  35 NW10G22   29.79R WCI  30
ANDOVER          N/A     38  10  31 NW10G20   29.78R WCI  31
TRENTON        PTSUNNY   43  29  57 W15G25    29.79F
MILLVILLE      SUNNY     48  31  51 W14       29.81F
ATLANTIC CITY  PTSUNNY   46  30  53 W17       29.80F
WRIGHTSTOWN    PTSUNNY   44  32  63 NW12      29.77F
TOMS RIVER     PTSUNNY   45  28  53 W16G26    29.79F
BELMAR         MOSUNNY   43  27  52 W14G20    29.78S
$$

PAZ047>061-062-071-251900-
EASTERN PENNSYLVANIA

CITY           SKY/WX    TMP DP  RH WIND       PRES   REMARKS
PHILADELPHIA   PTSUNNY   46  29  51 NW13G21   29.81F
ALLENTOWN      CLOUDY    39  29  67 W7        29.80R WCI  34
SCRANTON       MOSUNNY   33  10  38 NW12      29.80R WCI  24
$$

CTZ002-004>006-009-010-012-RIZ004-006-007-MAZ004-011-015-251900-
SOUTHERN NEW ENGLAND
 IN CT

CITY           SKY/WX    TMP DP  RH WIND       PRES   REMARKS
BRADLEY INTL   MOSUNNY   34  10  37 NW20G28   29.71R WCI  23
HARTFORD       SUNNY     35  14  42 W12G23    29.73R WCI  27
DANBURY        MOSUNNY   36  12  37 NW14G22   29.75R WCI  27
WTRBRY/OXFORD  MOSUNNY   36  16  44 NW12G23   29.71R WCI  27
BRIDGEPORT     MOSUNNY   40  19  43 W14G24    29.73R WCI  32
MERIDEN        SUNNY     38  16  40 NW15G24   29.72R WCI  29
NEW HAVEN      PTSUNNY   40  18  41 NW8G18    29.72R WCI  34
CHESTER        FAIR      37  19  48 W13G24    29.70R WCI  29
GROTON         MOSUNNY   40  18  41 NW21G29   29.68R WCI  30
WILLIMANTIC    SUNNY     36  15  42 W14G25    29.69R WCI  27

 IN RI

CITY           SKY/WX    TMP DP  RH WIND       PRES   REMARKS
PROVIDENCE     MOSUNNY   37  19  48 W17G23    29.66R WCI  27
BLOCK ISLAND   PTSUNNY   41  27  56 W14G23    29.67R
WESTERLY       MOSUNNY   40  20  44 W12G22    29.67S WCI  33

 IN MA

CITY           SKY/WX    TMP DP  RH WIND       PRES   REMARKS
BOSTON         MOSUNNY   36  18  48 W17G23    29.63R WCI  26
WORCESTER      MOSUNNY   30  11  45 NW18G28   29.61R WCI  18
WESTFIELD      SUNNY     32   8  36 NW22G30   29.71R WCI  19
PROVINCETOWN   NOT AVBL
NANTUCKET      SUNNY     42  26  53 W23G35    29.62F
$$

ANZ330-335-338-340-345-350-353-355-251900-
COASTAL MARINE OBSERVATIONS


STATION/POSITION TIME  SKY/WX   TEMP    WIND        PRES    VSBY  WAVE
                                AIR SEA DIR/SP/G                  HT/PER
                 (UTC)          (F)     (DEG/KT/KT) (MB)    (MI)  (FT/S)
NY HARB ENTRANCE 1800            42 42  290/ 17/ 25 1007.7          4/11
4S FIRE IS       1800               39                N/A           6/13
20S FIRE ISLAND  1700               42              1007.3          6/13
23SW MTP         1800                                 N/A           9/ 7
HUDSON CANYON    NOT AVBL
EXECUTION ROCKS  1800            41 35  300/ 16/ 19   N/A
WESTERN LI SOUND 1700            39     290/ 16/ 21   N/A           1/ 3
CENTRAL LI SOUND 1700            38 37  290/ 14/ 19   N/A           4/ 5
EASTERN LI SOUND NOT AVBL
ROBBINS REEF     1800            41     310/ 19/ 22 1007.0
$$


>>>>>>>>>>>>>>>>>>>>>>>>>>>> KEY <<<<<<<<<<<<<<<<<<<<<<<<<<<
>                                                          <
>     SKY/WX - SKY CONDITION/PRESENT WEATHER               <
>     TMP    - TEMPERATURE IN FAHRENHEIT                   <
>     DP     - DEWPOINT IN FAHRENHEIT                      <
>     RH     - RELATIVE HUMIDITY IN PERCENT                <
>     WIND   - DIRECTION AND SPEED IN MPH                  <
>     PRES   - MEAN SEA LEVEL PRESSURE IN INCHES OF HG     <
>     WCI    - WIND CHILL INDEX                            <
>     VSB    - VISIBILITY IN MILES                         <
>     HX     - HEAT INDEX                                  <
>     TC     - TEMPERATURE IN CELSIUS                      <
>     VRB    - VARIABLE WIND DIRECTION                     <
>                                                          <
>>>>>>>>>>>>>>>>>>>>>>>>>>>> KEY <<<<<<<<<<<<<<<<<<<<<<<<<<<




USA.gov is the U.S. government's official web portal to all federal, state and local government web resources and services.